Dewpoint
42 38 38 39 41 41 40 42 42 44 46 44 42 41 43 46 47 47 49 49 50 51 52 53 55 58 61 63 65 67 67 67 67 67 66 67 66 67 67 67 68 69 69 69
37 36 37 36 39 39 41 42 43 45 46 44 41 39 42 44 44 45 47 48 49 50 51 54 55 56 60 63 64 67 67 69 68 68 69 67 68 67 67 67 68 69 70 70
34 33 33 34 35 37 42 41 44 43 46 47 41 39 39 42 45 45 46 47 47 48 50 53 55 56 60 62 64 67 68 69 69 68 68 69 68 68 68 67 67 68 70 69
30 29 30 32 33 36 38 42 44 45 44 41 42 32 39 39 42 44 44 45 44 47 50 52 54 56 57 61 63 66 68 69 69 70 67 67 66 66 66 67 67 69 70 70
30 30 32 32 34 37 39 41 42 45 44 43 39 36 35 39 40 42 44 44 45 46 49 51 53 55 56 59 61 64 68 68 68 69 68 68 68 66 67 67 69 70 70 71
29 31 34 38 40 41 43 43 45 44 41 37 38 37 38 36 37 41 42 44 45 45 48 50 52 55 57 59 61 62 67 69 69 69 70 69 68 68 67 67 67 67 67 68
28 29 38 39 41 44 43 41 36 36 35 32 39 39 36 35 34 38 40 42 44 44 48 50 52 55 57 59 60 61 65 68 69 69 68 70 70 70 70 70 67 68 65 65
27 27 34 36 35 39 40 36 34 30 30 31 41 35 36 40 33 38 39 41 42 42 42 46 50 54 57 59 61 61 62 67 68 68 69 69 70 69 68 68 69 68 66 67
26 28 31 34 37 36 39 38 36 30 33 29 33 36 38 39 34 37 39 39 39 40 45 47 51 53 56 59 62 63 64 65 67 67 69 70 70 70 68 69 70 68 69 69
28 28 30 36 39 40 37 37 33 32 31 27 31 30 33 33 36 38 35 40 38 40 48 48 50 53 56 59 61 63 64 66 66 65 66 68 68 70 70 71 71 71 71 71
25 28 31 36 34 33 37 34 34 33 32 28 25 25 38 32 35 36 40 37 35 39 47 51 53 55 57 59 60 63 64 65 66 66 66 67 67 68 70 70 71 72 73 74
24 25 29 32 32 33 34 33 33 31 33 29 24 23 35 32 34 37 35 36 42 47 51 54 56 57 58 60 61 63 64 64 65 68 70 69 70 71 70 72 72 72 72 72
22 24 25 29 31 33 34 34 33 31 31 30 22 21 30 29 32 34 35 46 51 53 55 57 58 61 62 63 64 65 65 66 68 70 70 71 71 71 70 70 70 70 69 69
21 22 25 27 28 29 31 32 33 28 28 29 26 24 30 31 33 35 40 48 52 54 57 59 62 65 67 68 69 69 69 70 70 70 70 70 69 69 68 67 67 66 66 66
16 15 22 26 27 28 30 29 31 29 28 28 27 28 30 31 32 38 47 51 54 56 58 61 64 67 68 69 70 70 70 70 70 69 68 67 66 65 65 65 65 65 65 64
16 14 19 21 26 25 27 27 27 29 27 33 31 26 30 33 34 41 49 53 53 56 60 63 66 67 68 69 70 70 70 69 68 66 64 64 64 64 63 63 63 63 62 62
18 13 18 20 22 24 23 24 23 25 28 33 28 28 29 32 37 43 50 52 54 57 62 64 66 67 69 69 69 68 67 66 64 63 63 63 63 62 63 63 62 61 61 61
24 20 16 20 22 22 25 26 25 23 26 32 32 31 32 35 41 44 48 53 57 61 64 66 67 69 69 67 65 64 63 63 62 62 62 63 62 62 63 62 60 60 60 60
24 21 16 20 20 25 25 26 25 22 25 29 34 37 33 34 40 47 54 56 61 64 66 67 68 68 67 65 63 62 61 62 61 62 62 62 62 62 62 61 59 58 58 57
25 25 21 18 17 22 26 26 26 24 22 29 34 41 46 51 45 51 59 62 64 65 67 67 67 66 64 62 61 60 60 60 60 61 61 62 62 61 60 59 59 58 58 58
24 22 22 19 19 20 26 26 26 23 22 24 34 40 48 49 35 54 61 64 65 67 68 67 63 61 62 61 60 60 59 59 61 61 61 61 61 60 60 59 59 59 58 57
25 25 20 20 20 18 23 26 27 26 33 34 34 40 46 47 58 59 62 64 66 67 66 61 61 63 62 61 61 59 59 61 61 60 60 60 59 57 59 59 58 57 55 55
24 24 16 19 21 33 26 25 29 26 30 41 42 47 49 55 59 61 63 65 66 65 60 59 61 62 61 62 61 61 61 61 60 60 60 60 60 60 60 57 54 51 49 47
29 25 20 20 23 23 26 28 26 27 26 42 46 50 51 56 60 61 63 64 64 60 59 59 60 60 61 63 63 62 62 61 60 60 60 60 60 60 55 47 45 44 43 42
28 30 27 22 23 24 22 25 32 29 28 31 47 52 53 57 60 62 63 64 61 58 58 58 59 60 62 64 64 63 62 61 60 60 59 59 58 58 52 48 46 45 50 46
33 30 27 21 25 33 27 24 36 38 38 41 50 53 55 58 61 62 64 63 60 58 58 59 60 61 63 64 63 63 61 59 58 57 58 57 56 55 48 46 46 46 46 45
Wind_Speed
10 11 11 7 6 1 5 7 7 7 8 8 5 9 14 14 12 9 7 7 7 6 6 6 7 10 10 11 13 14 12 12 12 11 10 9 8 9 10 11 12 12 11 10
9 13 7 0 3 5 3 9 7 7 6 7 7 7 13 12 11 10 9 8 6 5 5 6 9 11 11 11 13 14 14 13 13 10 8 6 4 9 10 9 11 13 11 9
13 8 6 3 4 6 6 10 10 7 9 5 8 10 11 11 10 8 8 7 6 5 6 10 10 13 13 13 12 14 14 13 11 8 7 5 5 6 6 6 8 9 10 10
10 3 7 7 9 9 11 6 9 10 14 8 14 10 12 15 13 12 11 11 10 11 9 11 13 13 14 13 13 12 14 13 12 12 9 8 6 6 7 6 5 7 9 12
12 7 6 7 1 8 8 9 11 12 10 7 13 9 19 16 15 14 12 11 11 11 12 12 13 12 11 13 13 13 13 14 12 13 10 10 9 6 6 5 5 6 6 9
11 1 2 6 2 8 7 11 10 11 7 11 12 11 16 18 17 16 15 13 12 11 11 11 12 12 12 12 13 13 14 13 14 14 13 12 10 9 7 5 5 6 5 5
14 13 8 11 13 12 11 17 11 10 10 3 6 8 5 16 18 16 14 13 12 10 11 12 12 13 12 13 14 14 15 15 14 14 13 13 12 10 9 7 8 7 7 6
20 19 15 13 10 7 14 15 9 3 4 11 6 6 8 8 20 15 14 9 9 10 13 13 14 13 13 13 13 15 15 14 16 14 13 12 11 10 9 9 8 8 8 8
23 16 12 9 6 10 11 10 5 4 2 7 9 4 9 11 20 17 12 12 11 9 9 12 13 13 13 13 12 12 12 13 14 14 11 11 10 10 9 7 8 9 8 10
12 18 13 8 9 5 9 11 8 9 6 4 7 4 13 20 20 19 18 12 12 11 11 12 12 12 11 10 10 10 10 10 10 11 12 11 11 10 9 9 10 11 12 12
26 19 12 12 13 12 9 12 7 4 8 2 7 7 14 22 22 20 17 15 16 13 13 12 11 11 11 10 10 9 9 8 8 7 6 5 5 6 6 6 6 7 9 9
31 16 17 21 5 9 15 13 13 12 7 6 6 9 17 20 21 19 17 15 13 13 14 14 14 13 13 12 11 10 8 9 6 6 5 3 2 1 3 5 5 6 7 8
32 24 23 11 10 8 15 13 12 11 2 7 6 13 13 22 22 17 17 16 16 16 17 16 15 14 14 13 11 11 10 9 10 9 9 9 9 9 8 8 9 10 9 9
13 27 26 23 19 18 18 15 14 11 12 8 9 27 19 20 21 16 18 18 18 18 17 16 16 15 14 14 13 12 12 12 12 12 12 12 11 11 11 11 11 11 11 12
21 29 29 22 6 10 17 17 14 16 15 12 11 26 26 23 23 21 20 19 19 19 18 16 16 15 14 14 14 13 13 13 14 14 15 14 13 12 12 12 12 14 15 15
20 26 31 25 18 11 13 14 13 12 12 10 12 19 29 25 21 21 21 22 21 21 18 17 16 16 15 15 15 15 15 15 15 16 15 13 14 13 13 14 15 15 15 14
13 25 26 30 26 22 23 20 14 14 11 15 15 19 30 26 20 22 22 22 23 22 21 20 18 17 16 16 16 16 16 15 16 16 15 14 15 15 14 16 15 15 15 14
8 16 22 25 25 36 19 23 21 17 11 16 10 24 26 26 25 23 22 22 22 21 20 20 19 19 18 17 17 17 16 16 16 15 15 15 15 16 16 15 14 14 14 14
14 14 17 22 31 17 23 23 18 14 17 17 16 11 22 20 16 15 15 18 20 21 20 20 20 21 19 18 18 18 17 17 16 16 15 14 14 15 14 15 14 14 14 15
20 17 17 18 30 37 22 20 19 18 22 21 25 18 23 22 22 20 21 22 23 23 23 22 21 21 20 19 19 19 17 17 16 15 15 14 14 15 15 14 14 13 14 14
27 23 27 27 22 25 22 23 17 21 15 18 26 27 26 27 24 27 27 25 25 25 25 24 22 21 20 19 19 19 18 17 16 16 15 15 14 15 14 14 12 12 11 11
27 24 25 29 26 26 26 22 25 21 11 13 25 28 31 23 23 34 32 31 31 30 27 24 23 21 19 19 19 19 18 17 17 16 15 15 13 12 12 12 11 10 9 10
30 30 28 27 28 2 18 27 16 19 14 12 21 24 26 23 29 37 35 33 32 31 28 24 24 23 20 18 18 19 19 19 18 16 16 15 13 12 11 11 10 10 8 8
28 28 33 24 26 32 15 20 26 27 17 16 18 25 30 29 31 34 35 34 32 29 27 25 26 24 22 19 18 19 20 19 18 17 16 14 13 12 11 10 9 9 8 8
10 20 28 28 26 25 30 22 21 19 22 13 18 25 29 30 34 38 36 34 32 31 28 27 26 25 24 22 20 21 20 20 18 16 14 13 12 10 11 9 8 9 8 8
17 13 29 25 24 24 21 31 18 17 18 18 22 26 28 31 36 37 35 34 33 32 30 27 26 26 25 23 22 21 20 19 19 17 15 13 12 12 11 12 11 9 9 8
Wind_Direction
197 229 200 161 243 70 321 212 156 131 152 183 151 136 160 170 181 182 197 186 196 207 183 186 170 168 176 178 177 182 184 175 180 186 188 182 209 212 227 244 253 250 243 248
190 229 119 41 239 236 256 182 144 132 148 229 154 154 155 179 181 180 179 187 201 209 173 176 180 171 177 176 180 184 185 190 202 186 196 210 188 207 229 228 242 239 244 247
215 103 93 218 199 231 181 191 167 152 158 160 164 141 165 175 197 196 201 196 205 185 179 156 176 172 175 178 180 180 186 184 205 215 200 208 234 246 250 265 247 232 234 249
228 235 253 254 262 234 162 205 161 159 184 155 227 149 185 170 184 195 197 190 171 149 164 169 174 182 177 182 180 168 176 185 193 195 206 214 234 210 214 242 263 263 237 243
200 192 228 235 18 204 89 170 183 179 209 191 206 268 158 184 186 180 185 171 169 157 152 170 177 169 174 173 182 176 172 176 185 193 216 211 231 243 237 249 259 262 267 256
232 146 209 69 208 188 153 146 157 179 187 224 157 256 152 185 188 177 172 178 179 179 173 178 178 173 181 178 182 181 179 180 186 195 202 214 227 240 260 256 278 258 259 266
201 203 133 135 113 149 171 175 154 193 200 61 145 215 21 165 186 173 171 167 165 169 179 176 185 182 186 188 193 190 187 192 192 200 205 212 222 237 259 268 278 325 285 301
204 191 182 196 222 190 210 224 282 241 204 140 150 218 108 166 175 171 178 138 139 163 161 166 176 180 186 187 192 197 194 201 201 206 212 216 220 227 237 233 275 278 289 292
195 216 152 187 188 212 171 226 316 248 181 220 153 172 150 155 170 179 165 158 168 158 138 147 157 174 180 185 188 196 198 199 209 209 219 221 223 232 253 261 269 273 278 280
200 209 187 158 164 194 261 137 205 219 181 211 148 205 122 166 167 172 174 181 156 150 142 144 152 152 157 171 173 183 188 199 203 211 201 207 214 218 238 246 262 285 293 294
231 221 166 171 213 203 184 215 239 321 285 187 178 145 138 169 170 172 176 178 156 145 142 139 135 133 139 147 150 164 178 183 193 201 206 212 214 215 230 258 276 299 311 310
223 222 203 210 169 260 217 233 212 226 166 282 313 106 158 160 163 172 166 133 128 137 130 129 128 129 131 132 137 143 154 155 156 130 148 158 139 253 52 30 16 359 1 3
209 226 227 170 184 192 217 218 229 233 324 190 218 136 168 164 159 161 140 143 134 132 130 130 127 124 121 118 119 124 136 117 120 127 120 104 99 88 86 73 61 49 49 42
242 216 228 204 215 195 207 205 217 229 214 170 245 138 166 167 163 162 150 147 142 137 139 131 128 121 119 117 115 113 108 109 108 105 97 96 88 81 78 68 62 57 52 54
216 219 229 235 231 209 200 200 198 226 258 269 182 159 170 170 167 170 157 151 146 145 144 138 133 129 125 118 114 110 107 104 105 104 94 85 84 80 77 73 69 64 57 51
212 224 219 222 225 217 223 207 209 222 252 256 234 173 170 175 172 160 165 158 158 155 146 140 135 131 126 121 116 113 107 102 100 96 95 92 86 81 78 79 73 71 69 66
219 217 213 220 220 223 231 230 221 226 217 227 192 164 170 172 182 180 174 174 168 159 151 146 141 133 128 123 122 116 111 106 101 100 98 95 92 89 88 88 81 77 74 74
205 216 218 219 217 225 229 226 219 230 230 218 233 163 171 177 189 189 180 175 167 157 149 144 137 132 130 125 120 119 114 110 106 102 101 100 101 102 100 97 90 86 81 73
220 213 218 215 224 211 229 215 221 213 225 208 208 167 177 177 166 166 170 165 160 153 147 143 139 133 132 130 127 121 118 117 114 110 109 111 113 109 104 95 90 87 87 80
205 218 225 212 230 217 212 206 205 221 238 196 203 178 167 161 175 184 171 156 154 149 146 144 140 138 135 135 132 126 123 119 115 118 115 114 110 104 97 93 86 85 83 77
193 201 210 221 223 235 208 219 187 215 224 196 194 190 179 186 209 146 157 154 152 149 148 144 145 141 137 138 135 129 125 118 119 119 118 113 107 103 97 95 91 88 82 84
186 189 203 216 218 232 207 187 199 208 192 187 195 187 191 187 137 146 153 154 153 150 147 150 143 138 141 143 139 133 129 131 129 126 121 116 114 109 106 103 101 96 98 88
202 206 199 209 207 154 218 209 200 225 206 194 190 185 183 164 158 152 154 155 153 153 153 151 144 142 145 148 148 141 140 140 138 136 129 125 123 119 119 113 114 109 97 91
217 205 221 207 214 224 231 216 207 224 208 199 188 178 178 168 161 155 153 155 154 155 155 150 148 150 152 155 156 148 150 148 147 143 138 137 133 129 131 127 115 100 88 84
209 196 216 224 215 217 230 226 225 222 222 219 182 180 177 169 165 160 157 158 157 156 154 154 156 157 157 160 158 157 157 157 152 148 146 143 138 139 135 104 85 90 59 48
214 214 205 217 212 220 215 223 218 217 212 202 178 176 178 176 169 165 159 160 158 157 155 158 160 159 161 163 160 161 160 163 157 157 158 156 149 156 145 136 118 64 86 79